Wind_Speed
38 35 33 29 26 25 36 44 40 33 29 32 40 42 41 37 38 35 31 30 33 29 27 25 25 28 28 25 23 21 21 18 17 15 13 12 11 11 10 8 8 9 9
43 40 37 34 32 28 25 25 38 39 33 34 34 44 46 43 38 37 36 34 33 32 30 29 28 30 30 29 27 26 24 21 19 17 15 9 12 15 13 11 11 12 12
40 42 42 41 39 38 34 31 25 25 33 35 33 41 46 48 44 42 40 39 38 33 33 31 30 32 32 32 30 29 27 24 22 21 16 7 8 9 13 15 15 14 14
21 23 23 21 21 24 32 34 28 27 27 25 32 40 43 47 50 46 41 41 41 37 35 36 30 34 33 34 35 32 29 26 25 23 22 20 14 9 7 12 14 15 16
15 17 16 17 15 13 16 24 27 28 27 26 26 29 37 43 46 48 46 44 43 41 39 39 35 35 36 35 37 33 31 28 27 25 23 20 18 16 15 10 12 14 16
14 13 13 12 13 14 13 14 22 28 28 29 29 28 32 37 41 43 45 44 44 42 41 42 40 36 37 38 38 34 32 31 28 26 24 20 16 16 16 15 15 16 18
14 11 7 6 7 9 11 14 17 20 23 27 32 33 30 33 38 37 40 46 47 46 42 44 43 40 38 38 38 35 34 32 29 26 24 21 20 20 18 17 16 17 20
26 20 13 12 12 13 15 17 19 21 22 23 26 27 28 31 30 35 39 39 45 48 45 45 44 41 38 38 36 35 34 32 29 26 24 21 20 19 18 17 16 18 20
26 26 26 23 24 20 16 18 20 19 19 20 25 32 36 34 32 31 34 38 41 44 44 44 41 39 38 35 34 34 33 30 27 24 22 18 16 16 16 16 16 18 18
31 32 30 27 25 24 24 21 19 19 21 24 27 29 32 34 33 30 31 38 39 43 43 42 38 38 34 32 33 32 30 26 23 21 17 13 15 13 15 17 18 20 21
30 32 33 37 31 30 26 23 18 20 21 24 26 29 31 28 28 28 32 35 42 42 38 38 35 33 31 32 33 31 28 26 20 16 12 12 13 12 15 18 19 21 24
27 35 29 34 31 21 19 19 19 21 23 26 26 26 25 24 25 27 32 36 38 34 32 30 29 30 33 32 30 27 23 19 16 16 13 11 12 13 16 20 23 24 24
29 29 33 33 17 13 9 14 18 21 25 25 23 19 19 20 23 25 26 29 29 29 26 27 30 32 31 29 26 22 20 17 13 11 10 12 18 20 20 21 23 23 24
22 25 26 16 7 11 8 17 20 23 24 22 18 14 16 18 19 20 23 25 25 25 26 27 28 29 29 26 22 20 17 13 11 13 15 17 18 18 21 22 22 23 25
22 21 21 14 8 7 11 15 19 20 18 16 13 11 14 15 17 19 21 22 23 21 23 24 27 28 24 21 18 16 13 11 14 16 16 16 17 19 21 22 21 22 24
23 20 13 16 8 9 12 15 16 16 12 9 7 10 14 17 18 20 21 21 20 19 20 23 23 21 18 16 14 11 11 12 12 11 14 16 17 19 20 21 20 21 22
23 19 10 12 11 13 13 13 13 9 6 4 8 10 13 18 21 20 21 19 19 21 20 19 17 16 13 10 10 8 8 8 8 10 14 17 18 19 21 21 20 19 19
18 12 5 7 10 11 9 9 7 4 3 3 1 5 10 11 15 17 17 19 19 18 21 19 18 14 9 8 2 2 4 7 10 13 15 16 18 19 21 20 20 20 23
11 7 3 5 5 5 5 4 3 4 5 8 8 8 11 15 16 19 22 22 21 21 18 14 10 8 5 2 3 6 7 8 11 13 15 18 20 21 19 20 20 25 28
6 3 2 2 2 2 1 1 5 8 10 12 13 18 22 22 22 23 23 23 20 17 13 11 8 6 3 3 5 6 9 12 14 16 18 21 21 19 15 17 23 28 28
3 2 1 1 1 1 1 4 7 9 13 15 18 18 18 19 20 20 18 17 15 12 11 9 7 5 4 4 6 10 12 16 19 21 21 21 20 17 15 17 22 22 20
3 2 2 4 3 4 3 5 8 11 13 16 20 21 18 17 17 17 17 14 11 10 8 5 2 3 4 6 9 12 15 17 19 20 21 20 18 18 22 21 20 20 19
7 6 9 10 12 10 12 19 20 19 20 18 18 18 18 18 15 12 12 10 7 4 2 1 3 5 7 10 12 14 16 17 17 19 19 19 21 22 21 19 17 17 18
10 12 14 16 17 16 16 16 17 15 16 18 19 17 15 14 12 9 8 5 3 1 1 2 4 7 10 12 14 14 15 16 18 19 20 21 22 21 19 16 13 14 16
11 12 14 15 17 16 16 15 15 14 15 16 15 13 11 9 8 6 5 2 1 2 4 6 8 10 11 12 12 15 16 16 17 19 20 19 18 16 13 12 14 16 16
12 11 13 13 15 14 13 13 12 11 10 12 11 9 7 7 5 3 2 3 4 7 9 10 10 12 13 14 16 16 16 18 18 20 19 18 15 13 13 15 17 17 16
Wind_Direction
270 266 264 265 270 251 246 245 248 247 248 244 242 241 244 244 246 244 242 237 233 228 223 224 225 227 233 233 235 236 240 243 239 241 244 249 252 248 249 247 254 257 266
272 270 265 261 262 258 251 255 250 250 250 250 244 240 241 242 245 248 246 242 236 232 231 226 227 230 230 231 234 240 240 241 236 235 240 241 244 240 242 249 252 257 265
270 272 272 268 263 256 254 254 255 256 252 249 247 241 238 240 240 242 243 241 239 235 236 234 233 233 232 233 235 238 237 241 238 233 229 221 229 223 231 250 248 253 259
279 281 283 280 274 264 254 251 254 256 256 253 244 245 245 243 241 243 244 244 243 243 242 241 239 237 236 236 236 235 236 238 238 236 237 241 247 231 236 242 244 249 255
314 300 295 291 296 291 267 246 246 251 251 253 252 249 250 248 245 243 240 239 242 243 241 242 243 240 239 242 238 234 232 237 237 236 242 240 242 246 244 258 247 249 254
341 332 309 290 280 278 274 258 250 251 252 252 253 249 248 249 250 244 240 238 241 243 244 243 244 243 241 243 240 234 234 236 237 237 238 242 249 259 253 249 257 261 261
344 340 327 296 279 277 275 269 261 253 255 259 255 253 249 246 249 253 247 241 239 239 243 243 243 244 244 240 239 231 231 233 234 237 236 240 252 254 259 261 264 270 279
10 1 329 303 290 276 267 262 260 258 258 261 264 261 258 252 248 249 250 247 242 243 239 242 241 241 246 239 232 229 229 230 234 225 243 243 252 256 260 269 274 277 278
339 331 318 313 313 293 279 271 267 266 264 264 267 267 266 258 253 247 248 247 244 241 240 241 242 246 236 232 228 228 226 228 225 231 230 235 249 261 270 276 282 283 285
331 326 317 306 300 281 275 275 275 276 275 274 272 272 277 264 253 250 244 243 244 243 239 236 238 231 228 225 225 222 221 222 221 224 230 245 248 268 280 286 287 288 287
322 322 316 305 299 276 270 265 274 283 285 288 283 274 273 265 250 250 245 240 241 238 233 227 227 225 222 220 217 217 222 218 214 219 234 236 265 273 280 286 291 292 290
319 323 319 319 305 289 264 261 276 287 298 301 295 287 273 261 250 250 247 238 233 229 223 224 222 218 216 211 213 211 207 212 219 232 241 261 266 276 281 288 289 286 290
324 318 318 318 305 297 260 280 293 304 304 304 298 285 268 254 249 249 242 229 215 214 215 214 215 209 203 205 199 199 204 207 215 227 228 258 269 286 303 285 287 290 290
319 320 333 336 303 320 290 300 313 314 310 303 294 280 257 241 240 236 219 209 203 204 206 210 208 200 199 196 198 204 204 205 223 254 261 272 296 302 283 286 289 292 294
322 324 318 326 291 260 299 315 319 319 311 306 295 253 229 214 208 202 190 191 191 197 199 198 191 189 193 192 191 199 207 223 244 263 284 302 287 283 284 289 292 295 295
324 327 298 328 314 311 311 315 322 317 308 293 244 218 203 192 192 186 185 181 178 181 181 178 180 181 182 180 186 201 229 251 271 292 286 282 282 284 284 285 284 283 293
334 333 281 296 313 312 309 319 324 317 294 215 166 177 181 177 176 174 170 165 164 165 164 169 170 169 166 175 209 231 252 269 270 277 281 283 284 290 295 295 294 294 294
351 347 295 279 288 298 308 327 335 11 40 69 126 162 162 174 156 155 149 145 146 147 155 157 160 159 178 209 213 299 267 272 279 282 286 291 298 302 305 305 305 304 298
358 8 314 287 289 305 343 356 51 85 103 121 108 120 131 149 139 140 138 140 144 146 147 158 162 162 140 104 243 268 273 282 293 300 302 301 306 312 310 311 310 300 301
6 12 358 321 330 19 58 122 111 110 111 118 128 137 148 149 149 142 137 137 134 136 141 149 116 102 137 215 256 284 292 294 295 304 311 312 312 312 316 305 300 300 308
345 358 288 252 157 169 142 116 123 126 125 132 139 145 142 137 132 128 127 124 128 128 113 122 145 167 197 249 272 286 304 307 310 312 311 312 312 314 311 306 301 307 312
25 52 120 123 103 110 132 128 124 125 128 126 125 125 122 120 118 117 110 105 108 123 130 140 178 239 274 294 296 295 297 303 309 312 312 315 321 312 314 314 311 308 307
78 87 105 110 115 111 112 111 107 115 115 116 115 118 116 108 100 104 110 115 119 125 124 248 286 292 292 293 297 301 302 307 311 313 315 315 315 316 315 313 309 311 313
109 103 105 108 111 115 117 111 111 115 116 121 120 118 118 111 107 113 120 128 126 118 288 300 300 299 302 303 302 307 316 320 320 317 321 322 319 317 316 315 312 311 316
133 126 118 122 119 121 122 120 122 124 126 123 122 121 119 121 126 133 130 118 20 341 322 310 309 307 308 315 318 324 326 319 319 312 317 317 318 320 321 321 322 324 322
158 158 152 146 136 135 132 127 122 125 127 128 128 131 135 135 128 97 31 332 322 326 320 312 314 319 322 317 318 321 316 317 317 318 318 320 320 323 327 330 328 328 329
Height
1460 1464 1467 1469 1469 1471 1472 1475 1477 1482 1484 1487 1489 1491 1491 1496 1498 1499 1502 1504 1506 1508 1511 1514 1517 1520 1522 1525 1527 1528 1530 1530 1530 1531 1531 1531 1532 1532 1531 1530 1531 1531 1530
1453 1455 1459 1462 1463 1464 1466 1468 1469 1472 1476 1478 1481 1482 1485 1487 1491 1494 1496 1499 1500 1503 1505 1508 1511 1513 1516 1519 1521 1523 1525 1526 1527 1528 1529 1529 1529 1528 1528 1528 1527 1527 1527
1446 1448 1450 1452 1455 1457 1460 1462 1464 1466 1467 1470 1474 1474 1476 1479 1483 1487 1489 1491 1492 1496 1499 1501 1505 1508 1510 1512 1515 1518 1519 1521 1522 1523 1525 1524 1523 1523 1524 1525 1524 1524 1524
1443 1443 1444 1444 1446 1447 1450 1454 1457 1460 1462 1463 1464 1466 1467 1469 1473 1479 1483 1486 1487 1490 1494 1496 1500 1502 1503 1505 1508 1511 1513 1515 1518 1520 1519 1520 1520 1520 1521 1521 1521 1521 1521
1442 1440 1440 1441 1442 1443 1444 1446 1450 1453 1456 1457 1457 1459 1461 1462 1466 1470 1474 1478 1480 1484 1487 1489 1493 1496 1498 1500 1503 1505 1507 1510 1512 1514 1515 1516 1516 1516 1517 1517 1518 1517 1517
1441 1439 1439 1439 1440 1441 1442 1442 1444 1446 1448 1450 1451 1452 1455 1456 1458 1462 1466 1470 1473 1477 1480 1483 1486 1489 1492 1494 1497 1500 1503 1504 1505 1508 1510 1511 1512 1512 1513 1512 1512 1513 1512
1444 1443 1441 1441 1440 1440 1440 1440 1441 1442 1443 1443 1444 1445 1448 1449 1452 1454 1457 1462 1463 1467 1472 1475 1478 1481 1485 1488 1491 1494 1496 1499 1500 1502 1504 1506 1506 1507 1509 1509 1507 1507 1506
1448 1446 1445 1444 1442 1440 1439 1438 1438 1438 1438 1439 1439 1439 1440 1442 1443 1446 1449 1451 1455 1459 1462 1467 1471 1474 1478 1481 1485 1488 1491 1493 1494 1497 1499 1500 1503 1504 1505 1504 1503 1501 1500
1448 1447 1446 1444 1443 1440 1438 1437 1435 1434 1434 1434 1433 1433 1432 1433 1435 1438 1440 1443 1446 1450 1455 1459 1464 1467 1470 1475 1479 1483 1485 1487 1489 1491 1495 1493 1498 1500 1502 1501 1499 1498 1495
1443 1441 1439 1438 1437 1435 1434 1433 1431 1430 1429 1428 1427 1426 1424 1424 1427 1429 1431 1434 1438 1442 1447 1452 1457 1460 1465 1469 1474 1477 1480 1483 1485 1488 1491 1490 1493 1493 1496 1497 1495 1494 1492
1439 1436 1432 1430 1427 1425 1426 1427 1426 1425 1424 1422 1420 1418 1417 1417 1419 1422 1423 1426 1431 1434 1440 1445 1450 1455 1460 1464 1468 1472 1475 1478 1481 1485 1489 1486 1489 1488 1491 1492 1490 1489 1487
1434 1430 1426 1421 1418 1416 1417 1420 1422 1420 1417 1415 1412 1411 1411 1412 1413 1416 1418 1420 1423 1431 1435 1441 1446 1451 1455 1459 1463 1467 1473 1476 1479 1482 1481 1483 1486 1485 1485 1485 1484 1483 1481
1431 1427 1422 1415 1413 1412 1414 1416 1416 1413 1411 1408 1406 1405 1406 1407 1409 1410 1413 1417 1421 1427 1433 1438 1441 1445 1450 1455 1460 1465 1469 1473 1477 1480 1474 1479 1480 1479 1478 1479 1478 1477 1475
1430 1425 1420 1415 1413 1413 1411 1414 1412 1410 1406 1403 1401 1401 1403 1405 1407 1409 1410 1414 1418 1424 1430 1434 1439 1443 1447 1453 1459 1464 1466 1468 1474 1477 1476 1474 1473 1471 1477 1475 1473 1470 1469
1427 1423 1420 1417 1414 1412 1413 1412 1410 1406 1403 1401 1399 1400 1403 1405 1406 1408 1410 1413 1417 1421 1426 1434 1440 1444 1448 1453 1457 1462 1463 1465 1470 1471 1471 1470 1470 1470 1470 1469 1467 1464 1462
1425 1420 1419 1418 1415 1414 1412 1410 1408 1405 1402 1400 1400 1401 1404 1405 1406 1408 1412 1414 1417 1422 1428 1436 1442 1445 1449 1453 1457 1459 1461 1463 1463 1466 1469 1468 1467 1466 1465 1464 1462 1460 1456
1423 1418 1417 1417 1416 1415 1413 1410 1408 1405 1403 1401 1402 1404 1406 1406 1408 1410 1414 1417 1421 1425 1431 1438 1444 1448 1452 1454 1456 1459 1460 1463 1464 1464 1464 1465 1463 1460 1459 1457 1456 1453 1451
1421 1418 1418 1417 1417 1415 1414 1411 1410 1407 1406 1406 1407 1409 1411 1409 1414 1415 1415 1420 1425 1428 1435 1441 1446 1447 1447 1455 1456 1458 1460 1462 1461 1461 1461 1460 1458 1455 1452 1451 1448 1446 1445
1423 1420 1420 1419 1419 1417 1416 1415 1413 1412 1411 1410 1410 1412 1415 1419 1420 1420 1421 1426 1429 1434 1438 1444 1445 1447 1451 1453 1454 1458 1459 1457 1457 1457 1457 1455 1452 1449 1447 1445 1442 1440 1438
1425 1422 1421 1421 1420 1419 1418 1417 1416 1415 1414 1414 1414 1418 1422 1424 1425 1426 1427 1431 1434 1437 1438 1445 1447 1450 1452 1455 1455 1455 1456 1456 1455 1454 1452 1450 1447 1444 1442 1441 1437 1432 1430
1427 1424 1423 1423 1422 1421 1421 1420 1419 1419 1419 1421 1422 1424 1427 1429 1429 1430 1434 1436 1438 1441 1444 1448 1451 1453 1454 1454 1454 1453 1453 1451 1449 1448 1447 1445 1442 1439 1438 1435 1431 1428 1427
1428 1426 1425 1424 1424 1424 1425 1423 1423 1424 1424 1426 1428 1430 1431 1433 1435 1436 1438 1440 1443 1446 1448 1450 1451 1453 1453 1453 1452 1452 1450 1448 1446 1444 1442 1439 1436 1434 1431 1429 1426 1424 1420
1431 1429 1427 1427 1427 1427 1428 1427 1428 1429 1430 1431 1433 1435 1437 1438 1439 1441 1443 1445 1447 1449 1450 1451 1452 1452 1452 1452 1451 1449 1447 1445 1442 1440 1436 1434 1431 1429 1427 1425 1422 1419 1416
1434 1433 1432 1431 1431 1432 1432 1433 1433 1435 1436 1437 1438 1440 1441 1442 1443 1445 1447 1449 1449 1450 1451 1452 1452 1452 1451 1450 1448 1446 1443 1441 1438 1435 1432 1430 1428 1425 1423 1421 1420 1417 1414
1436 1436 1436 1435 1435 1435 1436 1437 1439 1440 1441 1442 1443 1444 1445 1446 1447 1448 1449 1450 1451 1451 1452 1452 1451 1449 1448 1447 1444 1442 1440 1437 1435 1431 1429 1427 1424 1422 1420 1419 1418 1415 1411
1437 1438 1438 1439 1438 1439 1440 1441 1443 1444 1445 1445 1446 1447 1448 1449 1449 1450 1450 1451 1451 1451 1451 1449 1448 1446 1445 1443 1442 1440 1437 1434 1432 1429 1426 1424 1421 1418 1416 1415 1414 1412 1408